sat.trackr.live / text

‹ back to catalog

STARLINK-31950

NORAD 59863 · 2024-098F

PAYLOAD ACTIVE UNKNOWN

§ Identity

Operator
Country
US
Launch date
2024-05-24
Launch site
AFETR
Launch vehicle
Mass (kg)
RCS (m²)

Purposes: comms

External: N2YO · Heavens-Above · Gunter

§ Orbital elements

Epoch: 2026-09-21T09:09:39.231648Z

Period
94.27 min
Inclination
43.0022°
Eccentricity
0.0001441
Mean motion
15.27581850 rev/d
Perigee alt
482.1 km
Apogee alt
484.0 km
Semi-major
6,861.2 km
B*
5.6694e-5
RAAN
252.9258°
Arg perigee
275.1176°
Mean anomaly
84.9512°
Rev number
13,177

§ Raw data

STARLINK-319501 59863U 24098F   26264.38170407  .00001298  00000+0  56694-4 0  99972 59863  43.0022 252.9258 0001441 275.1176  84.9512 15.27581850131776

JSON: /api/v1/satellites/59863 · /tle

For live sub-satellite position, see the globe view (requires WebGL).

§ Visibility from observer

Set your observer location to see the next 7 days of passes ≥ 10°. The values pass through the URL so the page stays shareable.

No JS? Fill the form by hand. The geolocation button needs JavaScript.